Location: Dötzum
(52.0808°N, 9.8063°E)
Time: 06:58:43
(UTC+00:00)

SL-16 R/B - Pass Details

Date: 27 May 2022
Orbit: 839 x 850 km, 71.0° (Epoch: 28 June)

Event Time Altitude Azimuth Distance (km) Brightness Sun altitude
Exits shadow 00:02:34 13° 144° (SE) 2,282 4.1 -16.0°
Maximum altitude 00:06:04 22° 101° (E) 1,785 3.9 -15.9°
Drops below altitude 10° 00:10:15 10° 53° (NE) 2,476 5.4 -15.8°
Sets 00:13:14 0° 39° (NE) 3,418 6.6 -15.7°
